Location: Massignieu
(45.7560°N, 5.7633°E)
Time: 00:22:07
(UTC+00:00)

Daily predictions for brighter satellites

Satellite Brightness Start Highest point End
(mag) Time Altitude Azimuth Time Altitude Azimuth Time Altitude Azimuth
ATLAS 2AS CENTAUR R/B 3.8 01:22:05 41° NE 01:22:05 41° NE 01:26:28 10° NE
Resurs 1-4 Rocket 4.3 01:42:10 10° NNE 01:43:37 19° N 01:43:37 19° N
NOSS 3-1 (A) 4.3 01:55:41 48° N 01:57:49 64° NE 02:06:31 10° SE
SL-16 R/B 4.2 02:10:00 22° NNW 02:10:00 22° NNW 02:12:01 10° NNW
USA 281 3.6 02:01:53 10° NNE 02:07:16 61° NE 02:07:16 61° NE
ADEOS II 3.9 02:04:24 10° NNE 02:06:35 26° N 02:06:35 26° N
Cosmos 2315 Rocket 4.5 02:07:21 10° N 02:13:09 58° ENE 02:13:09 58° ENE
CZ-2D R/B 4.1 02:09:37 10° N 02:11:32 22° N 02:11:32 22° N
Cosmos 2237 Rocket 4.5 02:21:27 10° N 02:25:48 22° NE 02:30:07 10° E
Lacrosse 5 rocket 3.8 02:31:30 19° NE 02:31:30 19° NE 02:32:41 10° NE
ATLAS CENTAUR R/B 3.9 02:34:10 47° NW 02:35:19 50° NNW 02:47:05 10° ENE
FENGYUN 3A 4.4 02:41:14 10° N 02:44:54 44° N 02:44:54 44° N
COSMOS 2428 3.0 02:43:35 10° NNW 02:49:16 66° ENE 02:54:56 10° SE
CZ-2C R/B 2.9 02:51:55 10° NNE 02:56:33 51° E 02:56:50 51° ESE
ALOS 3.4 02:53:34 10° N 02:56:20 35° N 02:56:20 35° N
USA 215 3.5 02:53:02 10° ESE 02:59:31 68° NNE 03:03:31 25° NW
Cosmos 2298 Rocket 4.2 03:05:10 60° SSE 03:05:54 69° ESE 03:11:11 10° NNE
ATLAS 2AS CENTAUR R/B 3.9 03:09:31 28° NW 03:11:01 30° NNW 03:17:13 10° NNE
Cosmos 1655 Rocket 4.3 03:13:15 49° WNW 03:13:15 49° WNW 03:19:10 10° N
Cosmos 2150 Rocket 4.0 03:16:29 59° S 03:17:30 83° ESE 03:22:47 10° NNE
CZ-2C R/B 3.2 03:14:01 10° N 03:19:39 60° WNW 03:19:54 59° W
Thor Agena Rocket 4.1 03:17:07 10° N 03:21:27 42° NW 03:21:27 42° NW
Resurs 1-4 Rocket 4.3 03:24:04 10° NNW 03:24:40 11° NW 03:24:40 11° NW
Cosmos 1743 Rocket 3.4 03:23:40 10° N 03:27:40 72° NW 03:27:40 72° NW
Meteor 1-11 Rocket 3.8 03:23:16 10° N 03:29:12 84° E 03:35:11 10° SSE
Meteor 1-14 Rocket 4.5 03:24:02 10° NNW 03:29:46 49° W 03:30:01 49° W
Cosmos 1805 Rocket 3.3 03:26:04 10° N 03:30:25 79° W 03:30:45 73° SSW
Cosmos 1980 4.2 03:26:45 10° NNW 03:32:22 61° ENE 03:37:58 10° SE
USA 229 DEB 3.9 03:25:12 10° NW 03:32:41 82° SW 03:40:44 10° SSE
USA 229 3.9 03:25:18 10° NW 03:32:46 82° SW 03:40:48 10° SSE
Cosmos 1867 3.6 03:33:23 52° WSW 03:33:25 52° WSW 03:38:41 10° SSE
Meteor 2-6 Rocket 4.3 03:38:03 45° W 03:38:23 45° WNW 03:43:35 10° N
ATLAS CENTAUR R/B 3.9 03:36:31 10° N 03:38:38 15° NE 03:40:43 10° ENE
Sich 1 2.9 03:34:55 10° NNW 03:39:14 70° W 03:41:10 32° S
GP-B 2.9 03:38:17 44° SSW 03:39:36 73° W 03:44:02 10° N
Cosmos 1484 Rocket 3.5 03:38:05 10° NNE 03:41:37 48° E 03:44:39 13° S
NOAA 11 4.2 03:36:43 10° NNE 03:42:15 82° ESE 03:47:44 10° SSW
H-2A R/B 4.4 03:38:35 10° NE 03:43:03 25° E 03:47:26 10° SSE
Cosmos 1244 Rocket 4.4 03:39:43 25° SSW 03:43:28 65° WNW 03:49:46 10° N
YAOGAN 6 3.0 03:42:58 10° N 03:45:35 45° NNW 03:45:35 45° NNW
Meteor 1-10 Rocket 4.1 03:44:44 30° SSW 03:47:29 63° WNW 03:53:00 10° N
BlueWalker 3 2.6 03:48:24 38° S 03:48:24 38° S 03:51:21 10° SSE
ADEOS II 4.1 03:46:02 10° NNW 03:47:29 13° NW 03:47:29 13° NW
USA 281 4.3 03:47:08 10° N 03:52:24 27° NW 03:54:07 24° WNW
IRS-1D 4.0 03:47:49 10° N 03:52:47 42° WNW 03:54:06 35° WSW
Envisat 3.0 03:50:10 10° N 03:55:08 57° WNW 03:57:47 27° SW
Cosmos 2297 Rocket 2.2 03:55:04 13° SSW 04:00:12 82° ESE 04:05:53 10° NNE
Cosmos 1536 3.2 04:03:35 10° NNW 04:07:10 36° W 04:07:16 36° W
Cosmos 1125 Rocket 4.4 04:06:13 26° WNW 04:07:17 28° WNW 04:11:45 10° N
Lacrosse 5 rocket 2.9 04:06:40 18° NW 04:07:55 21° NNW 04:10:56 10° NNE
Cosmos 2237 Rocket 2.1 04:04:48 10° NNW 04:10:30 76° WSW 04:16:08 10° SSE
Cosmos 1470 Rocket 4.4 04:09:02 10° N 04:13:26 54° ENE 04:17:49 10° SSE
Meteor 2-10 4.3 04:10:39 10° N 04:15:56 73° ENE 04:21:02 10° SSE
Okean 1 3.4 04:16:06 16° SSW 04:18:57 49° WNW 04:22:42 10° N
SL-16 R/B 3.4 04:14:35 10° NNW 04:20:05 45° ENE 04:25:31 10° SE
SL-08 R/B 4.4 04:17:26 10° SE 04:22:02 48° ENE 04:26:44 10° N
Cosmos 1726 1.9 04:19:53 10° N 04:23:19 85° E 04:26:45 10° S
H-2A R/B 2.4 04:20:22 10° NNE 04:23:51 86° WNW 04:27:20 10° SSW
ERS-2 2.8 04:22:13 10° NNE 04:25:16 47° E 04:28:19 10° S
Cosmos 1975 3.2 04:21:53 10° N 04:25:49 64° E 04:29:45 10° SSE
COBE Rocket 4.4 04:23:06 10° N 04:27:33 37° WNW 04:32:05 10° SW
Cosmos 2344 3.8 04:22:22 10° SSW 04:29:59 70° ESE 04:37:20 10° NE
IRS-1C 4.1 04:25:54 10° NNE 04:31:16 84° WNW 04:36:35 10° SSW
Nadezhda 1 Rocket 4.2 04:26:17 10° NNW 04:32:17 49° W 04:38:10 10° SSW
COSMOS 2428 3.8 04:28:55 10° NW 04:32:57 20° W 04:37:00 10° SW
ATLAS 5 CENTAUR R/B 4.3 04:31:40 10° N 04:34:11 14° NNE 04:36:55 10° ENE
CZ-2C R/B 3.7 04:30:54 10° NNW 04:34:20 20° WNW 04:36:08 16° W
Cosmos 1151 Rocket 3.9 04:31:38 13° SW 04:34:53 30° WNW 04:38:46 10° N
USA 215 3.7 04:36:36 10° SSE 04:42:45 43° SW 04:48:56 10° WNW
Cosmos 1515 Rocket 3.7 04:38:32 10° S 04:42:56 79° E 04:47:19 10° N
Cosmos 1733 3.0 04:39:18 10° NNW 04:42:59 69° W 04:46:38 10° S
Cosmos 1666 Rocket 4.1 04:41:39 10° NNW 04:45:37 34° W 04:49:32 10° SSW
Cosmos 1328 Rocket 3.8 04:41:41 10° SSW 04:45:55 47° WNW 04:50:11 10° N
BREEZE-M DEB (TANK) 4.1 04:42:21 14° W 04:46:03 74° N 05:06:04 10° ENE
ARIANE 5 R/B 2.4 04:41:37 10° N 04:46:37 67° WNW 04:51:33 10° SSW
Cosmos 2227 Rocket 2.2 04:41:21 10° SSW 04:47:02 77° WNW 04:52:44 10° NNE
COSMO-SKYMED 1 2.7 04:43:05 10° SSE 04:47:25 85° ENE 04:51:48 10° NNW
Helios 1B rocket 4.1 04:44:23 10° NNE 04:48:06 37° E 04:51:47 10° SSE
Cosmos 44 Rocket 3.9 04:43:54 11° WSW 04:48:25 42° NW 04:53:21 10° NNE
Cosmos 2263 Rocket 3.8 04:44:56 10° S 04:50:05 39° ESE 04:55:15 10° NE
Cosmos 1933 Rocket 3.8 04:47:23 10° N 04:51:44 74° E 04:56:03 10° SSE
Genesis I 4.0 04:49:18 10° NNW 04:52:55 50° NE 04:56:31 10° SE
CZ-2D R/B 3.5 04:52:40 10° N 04:56:59 68° WNW 05:01:19 10° SSW
Helios 1A 3.8 04:55:48 10° SSW 04:59:17 27° W 05:02:46 10° NW
IRS-P3 4.3 05:00:10 10° N 05:05:21 53° WNW 05:10:31 10° SW
Cosmos 1709 Rocket 4.3 05:00:43 10° SSW 05:06:49 47° WNW 05:12:57 10° N
Cosmos 1805 3.4 05:06:06 10° NNW 05:09:46 48° W 05:13:24 10° S
Cosmos 2082 4.1 05:06:29 10° SSW 05:12:06 71° ESE 05:17:44 10° NNE
